Date String (YYYY-MM-DD hh:mm:ss) UTC,Instrument flags,Ambient pressure (hPa),Sample flow (lpm),Bypass flow (lpm),Sample temperature (°C),Ambient temperature (°C),ASC tube jacket temperature (°C),LED temperature (°C),Box temperature (°C),Sample RH (%),Span deviation,Mass concentration (μg/m³),Mass concentration (μg/m³),Mass concentration (μg/m³)
DateTimeUTC,F1_M11,P_M11,Q1_M11,Q2_M11,T1_M11,T2_M11,T3_M11,T4_M11,T5_M11,U1_M11,ZSPAN_M11,X0_M11,X2_M11,X1_M11
2023-01-12 19:00:00,,0833.0,5.00,0.00,25.0,23.8,00.0,33.7,26.8,15.4,-000.7,0021.49,0014.84,0014.43
2023-01-12 19:01:00,,0833.1,5.00,0.00,25.0,23.7,00.0,33.7,26.8,15.3,-000.7,0021.53,0014.92,0014.52
2023-01-12 19:02:00,,0833.0,5.00,0.00,25.0,23.7,00.0,33.7,26.9,15.9,-000.8,0021.64,0015.03,0014.64
2023-01-12 19:03:00,,0833.1,5.00,0.00,25.0,23.7,00.0,33.7,26.9,15.7,-000.8,0021.91,0015.23,0014.85
2023-01-12 19:04:00,,0832.9,4.99,0.00,25.0,23.7,00.0,33.7,26.9,15.8,-000.9,0022.00,0015.29,0014.89
2023-01-12 19:05:00,,0832.8,5.00,0.00,25.0,23.7,00.0,33.8,26.9,15.5,-001.0,0022.15,0015.29,0014.87
2023-01-12 19:06:00,,0832.9,5.00,0.00,25.0,23.7,00.0,33.8,26.9,15.3,-000.9,0022.09,0015.24,0014.81
2023-01-12 19:07:00,,0832.8,5.00,0.00,24.9,23.7,00.0,33.8,26.9,15.2,-001.0,0022.21,0015.23,0014.76
2023-01-12 19:08:00,,0832.8,4.99,0.00,24.9,23.7,00.0,33.8,26.8,15.4,-001.0,0022.17,0015.19,0014.73
2023-01-12 19:09:00,,0832.8,5.01,0.00,24.9,23.7,00.0,33.8,26.7,15.6,-001.2,0022.55,0015.20,0014.73
2023-01-12 19:10:00,,0832.8,5.00,0.00,24.9,23.7,00.0,33.8,26.7,15.3,-001.2,0022.79,0015.34,0014.84
2023-01-12 19:11:00,,0832.8,5.00,0.00,25.0,23.7,00.0,33.8,26.7,14.8,-001.3,0022.88,0015.37,0014.83
2023-01-12 19:12:00,,0832.8,5.00,0.00,25.0,23.8,00.0,33.8,26.8,15.5,-001.2,0023.10,0015.52,0014.94
2023-01-12 19:13:00,,0832.8,5.00,0.00,25.0,23.8,00.0,33.8,26.8,15.6,-001.2,0023.36,0015.66,0015.06
2023-01-12 19:14:00,,0832.8,5.01,0.00,25.0,23.8,00.0,33.8,26.8,15.5,-001.2,0023.76,0015.77,0015.12
2023-01-12 19:15:00,,0832.7,5.01,0.00,25.0,23.8,00.0,33.8,26.8,15.9,-001.1,0025.06,0015.87,0015.20
2023-01-12 19:16:00,,0832.8,5.00,0.00,25.0,23.9,00.0,33.8,26.8,15.9,-001.0,0025.93,0016.04,0015.36
2023-01-12 19:17:00,,0832.7,5.00,0.00,25.0,23.9,00.0,33.8,26.9,15.8,-001.1,0026.26,0016.23,0015.52
2023-01-12 19:18:00,,0832.8,5.00,0.00,25.0,23.9,00.0,33.8,26.9,15.2,-001.1,0026.49,0016.38,0015.66
2023-01-12 19:19:00,,0832.8,4.99,0.00,25.1,23.9,00.0,33.8,26.9,15.3,-001.1,0026.75,0016.51,0015.73
2023-01-12 19:20:00,,0832.7,5.00,0.00,25.1,23.9,00.0,33.8,27.0,15.9,-001.1,0026.64,0016.64,0015.82
2023-01-12 19:21:00,,0832.7,5.00,0.00,25.1,24.0,00.0,33.8,26.9,15.4,-001.0,0027.25,0016.68,0015.83
2023-01-12 19:22:00,,0832.8,5.00,0.00,25.1,24.0,00.0,33.8,27.0,15.4,-001.0,0027.84,0016.81,0015.93
2023-01-12 19:23:00,,0832.8,5.00,0.00,25.1,24.0,00.0,33.9,27.0,15.8,-001.0,0028.03,0016.90,0015.98
2023-01-12 19:24:00,,0832.7,5.01,0.00,25.1,24.0,00.0,33.9,27.0,15.0,-001.0,0028.49,0016.75,0015.81
2023-01-12 19:25:00,,0832.7,5.00,0.00,25.1,24.0,00.0,33.9,27.0,14.8,-001.0,0028.59,0016.61,0015.68
2023-01-12 19:26:00,,0832.7,4.99,0.00,25.2,24.1,00.0,33.9,27.1,15.0,-001.1,0028.22,0016.45,0015.58
2023-01-12 19:27:00,,0832.8,5.01,0.00,25.2,24.1,00.0,33.9,27.1,14.4,-001.1,0026.56,0016.22,0015.34
2023-01-12 19:28:00,,0832.8,5.00,0.00,25.2,24.1,00.0,33.9,27.1,14.4,-001.1,0026.13,0015.93,0015.08
2023-01-12 19:29:00,,0832.8,5.01,0.00,25.2,24.1,00.0,33.9,27.1,14.4,-001.2,0025.73,0015.67,0014.83
2023-01-12 19:30:00,,0832.8,5.01,0.00,25.2,24.1,00.0,33.9,27.1,14.7,-001.2,0025.59,0015.55,0014.70
2023-01-12 19:31:00,,0832.7,5.00,0.00,25.2,24.2,00.0,34.0,27.1,14.9,-001.3,0025.35,0015.35,0014.54
2023-01-12 19:32:00,,0832.7,5.00,0.00,25.3,24.2,00.0,34.0,27.2,14.5,-001.4,0024.97,0015.19,0014.41
2023-01-12 19:33:00,,0832.8,5.02,0.00,25.3,24.2,00.0,34.0,27.2,14.4,-001.5,0024.27,0015.01,0014.28
2023-01-12 19:34:00,,0832.8,5.00,0.00,25.3,24.2,00.0,34.0,27.2,14.3,-001.3,0023.98,0014.81,0014.10
2023-01-12 19:35:00,,0832.8,5.00,0.00,25.3,24.2,00.0,34.0,27.2,15.4,-001.3,0023.79,0014.87,0014.16
2023-01-12 19:36:00,,0832.8,4.99,0.00,25.3,24.2,00.0,34.0,27.2,14.8,-001.3,0023.07,0014.94,0014.23
2023-01-12 19:37:00,,0832.8,5.00,0.00,25.3,24.2,00.0,34.1,27.2,14.6,-001.1,0023.07,0014.96,0014.24
2023-01-12 19:38:00,,0832.8,5.00,0.00,25.3,24.2,00.0,34.1,27.2,15.1,-001.2,0023.41,0015.12,0014.37
2023-01-12 19:39:00,,0832.7,5.01,0.00,25.3,24.2,00.0,34.1,27.2,14.9,-001.1,0023.64,0015.25,0014.49
2023-01-12 19:40:00,,0832.7,5.00,0.00,25.3,24.2,00.0,34.1,27.2,14.9,-001.1,0023.81,0015.40,0014.64
2023-01-12 19:41:00,,0832.7,5.01,0.00,25.3,24.2,00.0,34.1,27.2,14.6,-001.0,0023.84,0015.48,0014.76
2023-01-12 19:42:00,,0832.6,5.00,0.00,25.3,24.2,00.0,34.1,27.1,14.6,-000.8,0023.89,0015.54,0014.81
2023-01-12 19:43:00,,0832.6,5.00,0.00,25.4,24.2,00.0,34.1,27.2,14.9,-000.8,0024.03,0015.64,0014.88
2023-01-12 19:44:00,,0832.6,5.01,0.00,25.4,24.2,00.0,34.1,27.2,14.5,-000.7,0023.79,0015.68,0014.92
2023-01-12 19:45:00,,0832.5,5.00,0.00,25.4,24.2,00.0,34.1,27.2,14.2,-000.8,0023.93,0015.62,0014.89
2023-01-12 19:46:00,,0832.5,5.00,0.00,25.4,24.2,00.0,34.1,27.2,14.5,-001.0,0023.86,0015.51,0014.81
2023-01-12 19:47:00,,0832.5,5.01,0.00,25.4,24.3,00.0,34.2,27.2,14.6,-001.0,0023.64,0015.42,0014.74
2023-01-12 19:48:00,,0832.5,5.00,0.00,25.4,24.3,00.0,34.2,27.3,14.7,-001.1,0023.78,0015.38,0014.71
2023-01-12 19:49:00,,0832.4,4.99,0.00,25.4,24.3,00.0,34.2,27.3,15.0,-001.2,0023.47,0015.29,0014.68
2023-01-12 19:50:00,,0832.4,5.01,0.00,25.4,24.3,00.0,34.2,27.3,14.8,-001.2,0023.25,0015.24,0014.65
2023-01-12 19:51:00,,0832.4,4.99,0.00,25.4,24.2,00.0,34.2,27.3,14.3,-001.2,0023.30,0015.22,0014.63
2023-01-12 19:52:00,,0832.4,5.00,0.00,25.5,24.2,00.0,34.2,27.3,14.4,-001.3,0023.22,0015.16,0014.54
2023-01-12 19:53:00,,0832.3,5.00,0.00,25.5,24.2,00.0,34.2,27.3,14.0,-001.3,0023.38,0015.15,0014.50
2023-01-12 19:54:00,,0832.3,5.00,0.00,25.5,24.3,00.0,34.2,27.3,14.2,-001.2,0023.62,0015.10,0014.45
2023-01-12 19:55:00,,0832.4,5.01,0.00,25.5,24.3,00.0,34.2,27.3,14.3,-001.2,0023.59,0015.06,0014.40
2023-01-12 19:56:00,,0832.4,4.99,0.00,25.5,24.3,00.0,34.2,27.3,14.5,-001.3,0023.47,0015.10,0014.43
2023-01-12 19:57:00,,0832.3,5.00,0.00,25.5,24.3,00.0,34.2,27.3,14.6,-001.3,0023.22,0015.15,0014.50
2023-01-12 19:58:00,,0832.4,4.99,0.00,25.5,24.3,00.0,34.3,27.3,14.3,-001.2,0023.23,0015.16,0014.49
2023-01-12 19:59:00,,0832.3,5.01,0.00,25.5,24.3,00.0,34.3,27.4,14.4,-001.2,0023.11,0015.19,0014.50
